Regional Weather Roundup
Issued by NWS

Home | Current Version | Previous Version | Graphics & Text | Print | Product List | Glossary On
Versions: 1 2 3 4 5 6 7 8 9 10 11 12 13 14 15 16 17 18 19 20 21 22 23 24 25 26 27 28 29 30 31 32 33 34 35 36 37 38 39 40 41 42 43 44 45 46 47 48 49 50
000
ASUS45 KABQ 310610
RWRNM
NEW MEXICO REGIONAL WEATHER ROUNDUP
NATIONAL WEATHER SERVICE ALBUQUERQUE NM
1200 AM MDT MON AUG 31 2015

NOTE: "FAIR" MEANS FEW OR NO CLOUDS BELOW 12,000 FEET AGL WITH NO
       SIGNIFICANT WEATHER OR OBSTRUCTIONS TO VISION.

      THIS PRODUCT IS RELEASED AS TWO VERSIONS.  ONE VERSION NEAR
      THE TOP OF THE HOUR CONTAINING PRELIMINARY DATA FROM ALBUQUERQUE
      AND OTHER STATIONS.  A FINAL VERSION WITH ADDITIONAL DATA IS
      ISSUED ABOUT 10 MINUTES AFTER THE HOUR.

NMZ501-503-504-510>518-310700-
NORTHWEST PLATEAU/NORTHCENTRAL MOUNTAINS

CITY           SKY/WX    TMP DP  RH WIND       PRES   REMARKS
FARMINGTON     MOCLDY    64  50  60 CALM      30.14R
6HR MIN TEMP:  64; 6HR MAX TEMP:  83;

LOS ALAMOS     MOCLDY    68  44  42 NW5       30.26R
SANTA FE       PTCLDY    69  44  40 E3        30.19R
6HR MIN TEMP:  65; 6HR MAX TEMP:  85;

TAOS           MOCLDY    63  36  36 CALM      30.25R
ANGEL FIRE     FAIR      45  42  91 CALM      30.35S

$$
NMZ402-403-502-505>509-310700-
WESTCENTRAL MOUNTAINS/SOUTHWEST MOUNTAINS

CITY           SKY/WX    TMP DP  RH WIND       PRES   REMARKS
GALLUP         MOCLDY    57  54  89 CALM      30.23S
6HR MIN TEMP:  57; 6HR MAX TEMP:  73; 6HR PCP: TRACE;

GRANTS         MOCLDY    60  53  78 W5        30.24S
SILVER CITY      N/A     68  54  60 N8        30.17R

$$
NMZ407-409-411-412-310700-
SOUTHERN DESERTS

CITY           SKY/WX    TMP DP  RH WIND       PRES   REMARKS
LORDSBURG      FAIR      70  61  73 W6        30.07R
DEMING         CLEAR     73  53  49 S6        30.07S
6HR MIN TEMP:  73; 6HR MAX TEMP:  91;

LAS CRUCES     CLEAR     76  43  30 SW3       30.10R
HOLLOMAN AFB   CLEAR     78  45  31 N14       30.05R
ALAMOGORDO     CLEAR     75  45  33 S10       30.07S
T OR C         CLEAR     75  49  39 W5        30.09F
6HR MIN TEMP:  75; 6HR MAX TEMP:  90;


$$
NMZ519>523-310700-
CENTRAL VALLEYS/CENTRAL HIGHLANDS

CITY           SKY/WX    TMP DP  RH WIND       PRES   REMARKS
ALBUQUERQUE    PTCLDY    78  48  34 N8        30.14R
6HR MIN TEMP:  77; 6HR MAX TEMP:  91;

DOUBLE EAGLE   MOCLDY    73  49  42 NW15G22   30.17R
MORIARTY ARPT  FAIR      63  48  57 S6        30.20S
6HR MIN TEMP:  63; 6HR MAX TEMP:  85;

CLINES CORNERS CLEAR     63  46  54 SW13      30.24R
6HR MIN TEMP:  63; 6HR MAX TEMP:  76;

BELEN          FAIR      71  44  37 CALM      30.12S
6HR MIN TEMP:  71; 6HR MAX TEMP:  91;

SOCORRO        FAIR      74  46  36 CALM      30.09S
6HR MIN TEMP:  72; 6HR MAX TEMP:  91;


$$
NMZ524>526-539-540-310700-
SOUTHCENTRAL MOUNTAINS

CITY           SKY/WX    TMP DP  RH WIND       PRES   REMARKS
RUIDOSO        CLEAR     64  45  48 MISG      30.28F

$$
NMZ527>531-310700-
NORTHEAST HIGHLANDS/NORTHEAST PLAINS

CITY           SKY/WX    TMP DP  RH WIND       PRES   REMARKS
LAS VEGAS      CLEAR     58  46  64 S12       30.23S
6HR MIN TEMP:  58; 6HR MAX TEMP:  82;

RATON          CLOUDY    65  51  60 S5        30.17S
6HR MIN TEMP:  65; 6HR MAX TEMP:  86;

CLAYTON        CLEAR     64  52  64 SW7       30.08S
6HR MIN TEMP:  64; 6HR MAX TEMP:  85;


$$
NMZ532>537-310700-
EASTCENTRAL PLAINS

CITY           SKY/WX    TMP DP  RH WIND       PRES   REMARKS
TUCUMCARI      CLEAR     66  49  54 SW6       30.05R
6HR MIN TEMP:  66; 6HR MAX TEMP:  89;

CANNON AFB     CLEAR     64  49  59 SW6       30.10R
6HR MIN TEMP:  64; 6HR MAX TEMP:  87;

CLOVIS AIRPORT CLEAR     63  48  59 SW7       30.11R

$$
NMZ028-029-538-310700-
SOUTHEAST PLAINS

CITY           SKY/WX    TMP DP  RH WIND       PRES   REMARKS
ROSWELL        CLEAR     69  52  54 SW8       30.05S
6HR MIN TEMP:  68; 6HR MAX TEMP:  90;

ARTESIA        CLEAR     68  52  56 S9        30.06S
CARLSBAD       NOT AVBL
HOBBS            N/A     66  57  72 S7        30.10R


$$



USA.gov is the U.S. government's official web portal to all federal, state and local government web resources and services.